Regional Weather Roundup
Issued by NWS Nashville, TN

Home | Current Version | Previous Version | Text Only | Print | Product List | Glossary On
Versions: 1 2 3 4 5 6 7 8 9 10 11 12 13 14 15 16 17 18 19 20 21 22 23 24 25 26 27 28
000
ASUS44 KOHX 071110
RWROHX
MIDDLE TENNESSEE HOURLY WEATHER ROUNDUP
NATIONAL WEATHER SERVICE NASHVILLE TN
500 AM CST WED DEC 07 2016

NOTE: "FAIR" INDICATES FEW OR NO CLOUDS BELOW 12,000 FEET WITH
NO SIGNIFICANT WEATHER AND/OR OBSTRUCTIONS TO VISIBILITY.

* THESE REPORTS ARE NOT UNDER NWS QUALITY CONTROL AND MAY NOT
  REPORT WEATHER SUCH AS PRECIPITATION AND FOG.


TNZ005>011-023>034-057-059-062>066-078-080-071200
...NORTHERN MIDDLE TENNESSEE...

CITY           SKY/WX    TMP DP  RH WIND       PRES   REMARKS
CLARKSVILLE    CLEAR     33  31  92 N3        30.14F FOG
CROSSVILLE     CLOUDY    37  33  85 N6        30.06R WCI  32
GALLATIN       PTCLDY    34  32  93 N6        30.16R WCI  29
LEBANON        PTCLDY    35  32  89 N3        30.10R
NASHVILLE      MOCLDY    37  30  75 N7        30.14R WCI  32
PORTLAND       CLOUDY    36  34  93 N3        30.13S
SMYRNA         CLOUDY    38  34  85 N8        30.14R WCI  32
SPRINGFIELD    CLOUDY    34  34 100 CALM      30.13S
WEST NASHVILLE CLEAR     34  32  93 N5        30.14R WCI  30
$$
TNZ056-058-060-061-075>077-079-093>097-071200
...SOUTHERN MIDDLE TENNESSEE...

CITY           SKY/WX    TMP DP  RH WIND       PRES   REMARKS
COLUMBIA       CLOUDY    39  39 100 N5        30.10R
FAYETTEVILLE   CLOUDY    41  37  87 N7        30.07R
MCMINNVILLE    CLOUDY    39  37  93 N7          N/A  WCI  34
MURFREESBORO   CLOUDY    38  34  85 N6        30.11R WCI  33
SHELBYVILLE    CLOUDY    39  37  93 N5        30.11R
TULLAHOMA      CLOUDY    39  36  87 N5        30.07R
WINCHESTER     CLOUDY    39  37  93 N6        30.07S WCI  35
$$


...KEY TO REMARKS...
VSB - VISIBILITY IN MILES
WCI - WIND CHILL INDEX
HX  - HEAT INDEX





USA.gov is the U.S. government's official web portal to all federal, state and local government web resources and services.